Time,TemperatureF,DewpointF,PressureIn,WindDirection,WindDirectionDegrees,WindSpeedMPH,WindSpeedGustMPH,Humidity,HourlyPrecipIn,Conditions,Clouds,dailyrainin,SoftwareType,DateUTC
2013-04-03 00:07:00,48.5,47.0,30.15,WSW,246,0.0,0.0,95,0.00,,,0.00,weatherlink.com 1.10,2013-04-03 07:07:00,
2013-04-03 00:22:00,48.4,47.0,30.14,WSW,246,0.0,0.0,96,0.00,,,0.00,weatherlink.com 1.10,2013-04-03 07:22:00,
2013-04-03 00:37:00,48.3,47.0,30.15,WSW,247,0.0,0.0,96,0.00,,,0.00,weatherlink.com 1.10,2013-04-03 07:37:00,
2013-04-03 00:52:00,48.4,47.0,30.14,WSW,246,0.0,0.0,96,0.00,,,0.00,weatherlink.com 1.10,2013-04-03 07:52:00,
2013-04-03 01:07:00,48.3,47.0,30.15,WSW,248,0.0,0.0,96,0.00,,,0.00,weatherlink.com 1.10,2013-04-03 08:07:00,
2013-04-03 01:22:00,48.1,47.0,30.15,West,270,0.0,0.0,96,0.00,,,0.00,weatherlink.com 1.10,2013-04-03 08:22:00,
2013-04-03 01:37:00,47.9,47.0,30.14,West,271,0.0,0.0,96,0.00,,,0.00,weatherlink.com 1.10,2013-04-03 08:37:00,
2013-04-03 01:52:00,47.9,47.0,30.14,West,271,0.0,0.0,96,0.00,,,0.00,weatherlink.com 1.10,2013-04-03 08:52:00,
2013-04-03 02:07:00,47.8,47.0,30.14,West,270,0.0,0.0,96,0.00,,,0.00,weatherlink.com 1.10,2013-04-03 09:07:00,
2013-04-03 02:22:00,47.7,47.0,30.13,NNW,344,0.0,0.0,96,0.00,,,0.00,weatherlink.com 1.10,2013-04-03 09:22:00,
2013-04-03 02:37:00,47.6,47.0,30.13,NNW,345,0.0,0.0,96,0.00,,,0.00,weatherlink.com 1.10,2013-04-03 09:37:00,
2013-04-03 02:52:00,47.5,47.0,30.13,NNW,345,0.0,0.0,96,0.00,,,0.00,weatherlink.com 1.10,2013-04-03 09:52:00,
2013-04-03 03:07:00,47.5,47.0,30.13,NNW,345,0.0,0.0,96,0.00,,,0.00,weatherlink.com 1.10,2013-04-03 10:07:00,
2013-04-03 03:22:00,47.5,47.0,30.13,NNW,345,0.0,0.0,96,0.00,,,0.00,weatherlink.com 1.10,2013-04-03 10:22:00,
2013-04-03 03:37:00,47.4,46.0,30.13,NNW,345,0.0,0.0,96,0.00,,,0.00,weatherlink.com 1.10,2013-04-03 10:37:00,
2013-04-03 03:52:00,47.3,46.0,30.12,NW,317,0.0,0.0,96,0.00,,,0.00,weatherlink.com 1.10,2013-04-03 10:52:00,
2013-04-03 04:07:00,47.3,46.0,30.13,NW,318,0.0,0.0,96,0.00,,,0.00,weatherlink.com 1.10,2013-04-03 11:07:00,
2013-04-03 04:22:00,47.2,46.0,30.13,NW,318,0.0,0.0,96,0.00,,,0.00,weatherlink.com 1.10,2013-04-03 11:22:00,
2013-04-03 04:37:00,47.1,46.0,30.12,NW,318,0.0,0.0,96,0.00,,,0.00,weatherlink.com 1.10,2013-04-03 11:37:00,
2013-04-03 04:52:00,47.0,46.0,30.12,NW,318,0.0,0.0,96,0.00,,,0.00,weatherlink.com 1.10,2013-04-03 11:52:00,
2013-04-03 05:07:00,46.7,46.0,30.12,NW,317,0.0,0.0,96,0.00,,,0.00,weatherlink.com 1.10,2013-04-03 12:07:00,
2013-04-03 05:22:00,46.7,46.0,30.11,NW,318,0.0,0.0,96,0.00,,,0.00,weatherlink.com 1.10,2013-04-03 12:22:00,
2013-04-03 05:37:00,46.6,46.0,30.11,NW,317,0.0,0.0,96,0.00,,,0.00,weatherlink.com 1.10,2013-04-03 12:37:00,
2013-04-03 05:52:00,46.5,46.0,30.12,NW,318,0.0,0.0,96,0.00,,,0.00,weatherlink.com 1.10,2013-04-03 12:52:00,
2013-04-03 06:07:00,46.4,45.0,30.12,NW,319,0.0,0.0,96,0.00,,,0.00,weatherlink.com 1.10,2013-04-03 13:07:00,
2013-04-03 06:22:00,46.3,45.0,30.13,North,360,0.0,0.0,96,0.00,,,0.00,weatherlink.com 1.10,2013-04-03 13:22:00,
2013-04-03 06:37:00,46.1,45.0,30.13,North,356,0.0,0.0,96,0.00,,,0.00,weatherlink.com 1.10,2013-04-03 13:37:00,
2013-04-03 06:55:00,46.0,45.0,30.14,North,356,0.0,0.0,96,0.00,,,0.00,weatherlink.com 1.10,2013-04-03 13:55:00,
2013-04-03 07:07:00,45.8,45.0,30.13,North,356,0.0,0.0,96,0.00,,,0.00,weatherlink.com 1.10,2013-04-03 14:07:00,
2013-04-03 07:22:00,45.7,45.0,30.13,North,356,0.0,0.0,96,0.00,,,0.00,weatherlink.com 1.10,2013-04-03 14:22:00,
2013-04-03 07:37:00,45.8,45.0,30.14,North,356,0.0,0.0,96,0.00,,,0.00,weatherlink.com 1.10,2013-04-03 14:37:00,
2013-04-03 07:52:00,46.0,45.0,30.15,North,356,0.0,0.0,96,0.00,,,0.00,weatherlink.com 1.10,2013-04-03 14:52:00,
2013-04-03 08:07:00,46.1,45.0,30.15,North,357,0.0,0.0,96,0.00,,,0.00,weatherlink.com 1.10,2013-04-03 15:07:00,
2013-04-03 08:22:00,46.1,45.0,30.14,North,356,0.0,0.0,96,0.00,,,0.00,weatherlink.com 1.10,2013-04-03 15:22:00,
2013-04-03 08:37:00,46.4,45.0,30.15,North,356,0.0,0.0,96,0.00,,,0.00,weatherlink.com 1.10,2013-04-03 15:37:00,
2013-04-03 08:52:00,46.7,46.0,30.15,NE,53,0.0,0.0,96,0.00,,,0.00,weatherlink.com 1.10,2013-04-03 15:52:00,
2013-04-03 09:07:00,47.1,46.0,30.15,NE,53,0.0,0.0,96,0.00,,,0.00,weatherlink.com 1.10,2013-04-03 16:07:00,
2013-04-03 09:22:00,47.5,47.0,30.15,NE,53,0.0,0.0,96,0.00,,,0.00,weatherlink.com 1.10,2013-04-03 16:22:00,
2013-04-03 09:37:00,48.2,47.0,30.14,SSE,152,0.0,0.0,96,0.00,,,0.00,weatherlink.com 1.10,2013-04-03 16:37:00,
2013-04-03 09:52:00,49.0,48.0,30.14,SSE,152,0.0,0.0,96,0.00,,,0.00,weatherlink.com 1.10,2013-04-03 16:52:00,
2013-04-03 10:07:00,49.8,49.0,30.14,SSW,212,0.0,0.0,95,0.00,,,0.00,weatherlink.com 1.10,2013-04-03 17:07:00,
2013-04-03 10:22:00,50.5,49.0,30.14,SSW,212,0.0,0.0,95,0.00,,,0.00,weatherlink.com 1.10,2013-04-03 17:22:00,
2013-04-03 10:38:00,51.1,50.0,30.14,SE,126,0.0,0.0,95,0.00,,,0.00,weatherlink.com 1.10,2013-04-03 17:38:00,
2013-04-03 10:53:00,52.1,51.0,30.14,SE,136,0.0,0.0,94,0.00,,,0.00,weatherlink.com 1.10,2013-04-03 17:53:00,
2013-04-03 11:08:00,53.2,52.0,30.13,ESE,116,2.0,2.0,94,0.00,,,0.00,weatherlink.com 1.10,2013-04-03 18:08:00,
2013-04-03 11:23:00,54.8,53.0,30.12,ESE,120,0.0,0.0,92,0.00,,,0.00,weatherlink.com 1.10,2013-04-03 18:23:00,
2013-04-03 11:38:00,56.2,53.0,30.12,SE,141,0.0,0.0,90,0.00,,,0.00,weatherlink.com 1.10,2013-04-03 18:38:00,
2013-04-03 11:53:00,57.2,54.0,30.11,SE,124,0.0,0.0,88,0.00,,,0.00,weatherlink.com 1.10,2013-04-03 18:53:00,
2013-04-03 12:08:00,59.0,55.0,30.10,South,174,0.0,1.0,87,0.00,,,0.00,weatherlink.com 1.10,2013-04-03 19:08:00,
2013-04-03 12:23:00,61.1,56.0,30.09,NNW,342,0.0,1.0,83,0.00,,,0.00,weatherlink.com 1.10,2013-04-03 19:23:00,
2013-04-03 12:38:00,62.5,57.0,30.08,SE,138,0.0,0.0,82,0.00,,,0.00,weatherlink.com 1.10,2013-04-03 19:38:00,
2013-04-03 12:53:00,64.7,57.0,30.07,SSE,155,0.0,1.0,75,0.00,,,0.00,weatherlink.com 1.10,2013-04-03 19:53:00,
2013-04-03 13:08:00,65.0,58.0,30.07,SE,143,0.0,2.0,78,0.00,,,0.00,weatherlink.com 1.10,2013-04-03 20:08:00,
2013-04-03 13:23:00,66.0,56.0,30.06,SSW,195,0.0,2.0,71,0.00,,,0.00,weatherlink.com 1.10,2013-04-03 20:23:00,
2013-04-03 13:53:00,68.5,56.0,30.05,WSW,255,0.0,2.0,65,0.00,,,0.00,weatherlink.com 1.10,2013-04-03 20:53:00,
2013-04-03 14:39:00,70.5,57.0,30.03,WSW,254,1.0,2.0,62,0.00,,,0.00,weatherlink.com 1.10,2013-04-03 21:39:00,
2013-04-03 14:54:00,70.6,56.0,30.02,NW,304,0.0,2.0,61,0.00,,,0.00,weatherlink.com 1.10,2013-04-03 21:54:00,
2013-04-03 15:09:00,70.7,57.0,30.02,WSW,246,1.0,2.0,63,0.00,,,0.00,weatherlink.com 1.10,2013-04-03 22:09:00,
2013-04-03 15:24:00,70.8,58.0,30.01,WNW,295,0.0,2.0,64,0.00,,,0.00,weatherlink.com 1.10,2013-04-03 22:24:00,
2013-04-03 15:39:00,70.3,59.0,30.01,South,172,0.0,3.0,67,0.00,,,0.00,weatherlink.com 1.10,2013-04-03 22:39:00,
2013-04-03 15:54:00,70.9,59.0,30.00,South,174,0.0,2.0,67,0.00,,,0.00,weatherlink.com 1.10,2013-04-03 22:54:00,
2013-04-03 16:24:00,69.8,58.0,30.00,SSE,163,0.0,2.0,67,0.00,,,0.00,weatherlink.com 1.10,2013-04-03 23:24:00,
2013-04-03 16:39:00,69.7,57.0,30.00,North,349,0.0,2.0,65,0.00,,,0.00,weatherlink.com 1.10,2013-04-03 23:39:00,
2013-04-03 16:54:00,69.0,56.0,30.00,NNE,13,0.0,2.0,64,0.00,,,0.00,weatherlink.com 1.10,2013-04-03 23:54:00,
2013-04-03 17:09:00,67.9,56.0,30.00,SE,145,1.0,2.0,67,0.00,,,0.00,weatherlink.com 1.10,2013-04-04 00:09:00,
2013-04-03 17:24:00,65.9,57.0,30.00,SW,226,0.0,2.0,72,0.00,,,0.00,weatherlink.com 1.10,2013-04-04 00:24:00,
2013-04-03 17:39:00,64.2,57.0,30.00,WSW,250,1.0,1.0,76,0.00,,,0.00,weatherlink.com 1.10,2013-04-04 00:39:00,
2013-04-03 17:54:00,63.4,56.0,30.00,SW,215,0.0,0.0,77,0.00,,,0.00,weatherlink.com 1.10,2013-04-04 00:54:00,
2013-04-03 18:09:00,62.0,55.0,30.00,WSW,253,0.0,1.0,77,0.00,,,0.00,weatherlink.com 1.10,2013-04-04 01:09:00,
2013-04-03 18:24:00,60.7,54.0,30.00,SW,231,0.0,1.0,79,0.00,,,0.00,weatherlink.com 1.10,2013-04-04 01:24:00,
2013-04-03 18:39:00,60.0,54.0,30.00,SW,231,0.0,0.0,81,0.00,,,0.00,weatherlink.com 1.10,2013-04-04 01:39:00,
2013-04-03 18:54:00,59.5,54.0,30.00,SW,233,0.0,0.0,81,0.00,,,0.00,weatherlink.com 1.10,2013-04-04 01:54:00,
2013-04-03 19:09:00,58.6,52.0,30.00,SW,232,0.0,0.0,80,0.00,,,0.00,weatherlink.com 1.10,2013-04-04 02:09:00,
2013-04-03 19:24:00,57.7,52.0,30.00,SW,232,0.0,0.0,81,0.00,,,0.00,weatherlink.com 1.10,2013-04-04 02:24:00,
2013-04-03 19:39:00,56.3,51.0,30.00,SW,215,0.0,0.0,82,0.00,,,0.00,weatherlink.com 1.10,2013-04-04 02:39:00,
2013-04-03 19:54:00,55.6,51.0,29.99,SW,215,0.0,0.0,84,0.00,,,0.00,weatherlink.com 1.10,2013-04-04 02:54:00,
2013-04-03 20:09:00,54.3,50.0,30.00,SW,215,0.0,0.0,85,0.00,,,0.00,weatherlink.com 1.10,2013-04-04 03:09:00,
2013-04-03 20:24:00,53.3,50.0,30.00,SW,221,0.0,0.0,87,0.00,,,0.00,weatherlink.com 1.10,2013-04-04 03:24:00,
2013-04-03 20:39:00,52.8,49.0,30.01,SW,221,0.0,0.0,88,0.00,,,0.00,weatherlink.com 1.10,2013-04-04 03:39:00,
2013-04-03 20:54:00,52.5,49.0,30.01,SW,219,0.0,0.0,89,0.00,,,0.00,weatherlink.com 1.10,2013-04-04 03:54:00,
2013-04-03 21:09:00,52.2,49.0,30.01,SW,219,0.0,0.0,89,0.00,,,0.00,weatherlink.com 1.10,2013-04-04 04:09:00,
2013-04-03 21:24:00,52.0,49.0,30.01,SW,219,0.0,0.0,90,0.00,,,0.00,weatherlink.com 1.10,2013-04-04 04:24:00,
2013-04-03 21:39:00,51.8,49.0,30.02,SW,219,0.0,0.0,90,0.00,,,0.00,weatherlink.com 1.10,2013-04-04 04:39:00,
2013-04-03 21:54:00,51.6,49.0,30.02,SW,219,0.0,0.0,90,0.00,,,0.00,weatherlink.com 1.10,2013-04-04 04:54:00,
2013-04-03 22:09:00,51.3,49.0,30.02,SW,219,0.0,0.0,91,0.00,,,0.00,weatherlink.com 1.10,2013-04-04 05:09:00,
2013-04-03 22:24:00,51.0,49.0,30.02,SW,219,0.0,0.0,92,0.00,,,0.00,weatherlink.com 1.10,2013-04-04 05:24:00,
2013-04-03 22:54:00,50.7,49.0,30.02,SW,219,0.0,0.0,92,0.00,,,0.00,weatherlink.com 1.10,2013-04-04 05:54:00,
2013-04-03 23:09:00,50.6,49.0,30.02,SW,220,0.0,0.0,93,0.00,,,0.00,weatherlink.com 1.10,2013-04-04 06:09:00,
2013-04-03 23:24:00,50.6,49.0,30.02,SW,219,0.0,0.0,93,0.00,,,0.00,weatherlink.com 1.10,2013-04-04 06:24:00,
2013-04-03 23:39:00,50.6,49.0,30.02,SW,219,0.0,0.0,93,0.00,,,0.00,weatherlink.com 1.10,2013-04-04 06:39:00,
2013-04-03 23:54:00,50.6,49.0,30.01,SW,219,0.0,0.0,93,0.00,,,0.00,weatherlink.com 1.10,2013-04-04 06:54:00,